This demonstration page uses our WeatherBlox Daily Observations layout. Learn more.

Left ArrowRight Arrow

36.17497, -115.13722

Hourly Observations for January 3, 2019

Temp ( °F °C ) Dew Point ( °F °C ) Humidity (%) Winds ( mph kmh ) Pressure ( in mb ) Visibility ( mi km ) Precip ( " mm )
12:53 am 00:53 Clear 31 -0.6 10 -12.2 42 42 Calm 30.4 1029 10 16.0934 0 0
1:53 am 01:53 Clear 30 -1.1 11 -11.7 45 45 NNW 5 7 30.4 1030 10 16.0934 0 0
2:53 am 02:53 Clear 30 -1.1 11 -11.7 45 45 NW 5 7 30.4 1029 10 16.0934 0 0
3:53 am 03:53 Clear 28 -2.2 11 -11.7 49 49 NNW 5 7 30.39 1029 10 16.0934 0 0
4:53 am 04:53 Clear 28 -2.2 11 -11.7 49 49 NW 3 6 30.38 1029 10 16.0934 0 0
5:53 am 05:53 Clear 29 -1.7 12 -11.1 49 49 WNW 3 6 30.39 1029 10 16.0934 0 0
6:53 am 06:53 Sunny 29 -1.7 12 -11.1 49 49 WNW 5 7 30.4 1030 10 16.0934 0 0
7:53 am 07:53 Sunny 31 -0.6 13 -10.6 47 47 N 3 6 30.43 1031 10 16.0934 0 0
8:53 am 08:53 Sunny 37 2.8 13 -10.6 37 37 Calm 30.45 1031 10 16.0934 0 0
9:53 am 09:53 Sunny 40 4.4 12 -11.1 32 32 Calm 30.43 1031 10 16.0934 0 0
10:53 am 10:53 Sunny 43 6.1 12 -11.1 28 28 Calm 30.39 1029 10 16.0934 0 0
11:53 am 11:53 Sunny 46 7.8 12 -11.1 25 25 Calm 30.34 1027 10 16.0934 0 0
12:53 pm 12:53 Sunny 49 9.4 12 -11.1 22 22 Calm 30.29 1026 10 16.0934 0 0
1:53 pm 13:53 Sunny 49 9.4 13 -10.6 23 23 S 5 7 30.27 1025 10 16.0934 0 0
2:53 pm 14:53 Sunny 50 10 13 -10.6 22 22 ESE 3 6 30.26 1025 10 16.0934 0 0
3:53 pm 15:53 Sunny 50 10 13 -10.6 22 22 ESE 3 6 30.25 1025 10 16.0934 0 0
4:53 pm 16:53 Clear 48 8.9 13 -10.6 24 24 Calm 30.26 1025 10 16.0934 0 0
5:53 pm 17:53 Clear 45 7.2 13 -10.6 27 27 Calm 30.27 1025 10 16.0934 0 0
6:53 pm 18:53 Clear 42 5.6 15 -9.4 33 33 WNW 3 6 30.28 1025 10 16.0934 0 0
7:53 pm 19:53 Clear 40 4.4 17 -8.3 40 40 WNW 6 9 30.29 1026 10 16.0934 0 0
8:53 pm 20:53 Clear 39 3.9 17 -8.3 41 41 WNW 5 7 30.28 1025 10 16.0934 0 0
9:53 pm 21:53 Clear 38 3.3 16 -8.9 41 41 NNW 3 6 30.27 1025 10 16.0934 0 0
10:53 pm 22:53 Clear 36 2.2 17 -8.3 46 46 NNW 3 6 30.26 1025 10 16.0934 0 0
11:53 pm 23:53 Clear 34 1.1 16 -8.9 48 48 NW 6 9 30.25 1024 10 16.0934 0 0

Powered by AerisWeather